TimeMDT,TemperatureF,Dew PointF,Humidity,Sea Level PressureIn,VisibilityMPH,Wind Direction,Wind SpeedMPH,Gust SpeedMPH,PrecipitationIn,Events,Conditions,WindDirDegrees,DateUTC
12:53 AM,26.1,19.0,75,29.79,10.0,South,4.6,-,N/A,,Clear,170,2012-03-20 06:53:00
1:53 AM,23.0,19.0,85,29.82,10.0,Calm,Calm,-,N/A,,Clear,0,2012-03-20 07:53:00
2:53 AM,21.9,18.0,85,29.84,10.0,WNW,8.1,-,N/A,,Clear,300,2012-03-20 08:53:00
3:53 AM,21.9,10.9,63,29.83,10.0,West,5.8,-,N/A,,Clear,280,2012-03-20 09:53:00
4:53 AM,21.9,12.9,68,29.85,10.0,WNW,3.5,-,N/A,,Clear,300,2012-03-20 10:53:00
5:53 AM,21.9,14.0,72,29.88,10.0,Calm,Calm,-,N/A,,Clear,0,2012-03-20 11:53:00
6:53 AM,19.9,14.0,78,29.93,10.0,East,4.6,-,N/A,,Clear,90,2012-03-20 12:53:00
7:53 AM,21.0,15.1,78,29.96,10.0,ESE,3.5,-,N/A,,Clear,120,2012-03-20 13:53:00
8:53 AM,24.1,16.0,71,29.98,10.0,ESE,4.6,-,N/A,,Clear,120,2012-03-20 14:53:00
9:53 AM,30.0,14.0,51,29.96,10.0,SE,9.2,-,N/A,,Clear,130,2012-03-20 15:53:00
10:53 AM,34.0,10.0,37,29.95,10.0,SE,10.4,-,N/A,,Clear,140,2012-03-20 16:53:00
11:53 AM,37.9,10.0,32,29.93,10.0,East,8.1,-,N/A,,Clear,100,2012-03-20 17:53:00
12:53 PM,39.0,9.0,29,29.93,10.0,Variable,3.5,-,N/A,,Clear,0,2012-03-20 18:53:00
1:53 PM,41.0,10.0,28,29.92,10.0,Variable,3.5,-,N/A,,Clear,0,2012-03-20 19:53:00
2:53 PM,42.1,10.0,27,29.92,10.0,Calm,Calm,-,N/A,,Clear,0,2012-03-20 20:53:00
3:53 PM,48.0,12.0,24,29.88,10.0,Variable,3.5,-,N/A,,Clear,0,2012-03-20 21:53:00
4:53 PM,48.0,10.9,22,29.87,10.0,Calm,Calm,-,N/A,,Clear,0,2012-03-20 22:53:00
5:53 PM,48.0,12.0,24,29.85,10.0,East,4.6,-,N/A,,Clear,80,2012-03-20 23:53:00
6:53 PM,46.0,12.0,25,29.88,10.0,NE,4.6,-,N/A,,Clear,50,2012-03-21 00:53:00
7:53 PM,44.1,10.0,25,29.90,10.0,Variable,3.5,-,N/A,,Clear,0,2012-03-21 01:53:00
8:53 PM,37.9,15.1,39,29.93,10.0,WSW,8.1,-,N/A,,Clear,240,2012-03-21 02:53:00
9:53 PM,36.0,14.0,41,29.94,10.0,Variable,3.5,-,N/A,,Clear,0,2012-03-21 03:53:00
10:53 PM,35.1,15.1,44,29.94,10.0,WSW,6.9,-,N/A,,Clear,240,2012-03-21 04:53:00
11:53 PM,36.0,16.0,44,29.93,10.0,SSW,3.5,-,N/A,,Clear,210,2012-03-21 05:53:00